[[{"header":{"parameterUnit":"m.s-1","parameterCategory":1,"la1":30.2991,"la2":30.254,"lo1":-89.0895,"lo2":-89.0444,"dy":0.0017,"dx":0.0017,"nx":28,"ny":28,"refTime":"2025-01-17T09:00:00:Z","depth":0,"parameterNumber":2,"parameterNumberName":"U-component_of_WINDS"},"data":[0,0,0,0,0,0,0,0,0,0,0,0,0,0,0,0,0,0,0,0,0,0,0,0,0,0,0,0,0,0,0,0,0,0,0,0,0,0,0,0,0,0,0,0,0,0,0,0,0,0,0,0,0,0,0,0,0,0,1.3944,1.3944,0,1.3956,1.3956,1.3956,1.3929,1.3928,1.3928,1.3927,1.394,1.3941,1.3942,0,0,0,0,0,0,0,0,0,0,0,0,0,1.3897,1.3898,1.3944,1.3944,1.3944,1.3956,1.3956,1.3956,1.3929,1.3928,1.3927,1.3926,1.3939,1.3941,1.3942,0,0,0,0,0,0,0,0,0,0,0,0,0,1.3914,1.3898,1.3944,1.3932,1.3931,1.3956,1.3956,1.3956,1.393,1.3928,1.3927,1.3926,1.3939,1.394,1.3942,1.3979,0,0,1.3947,1.3948,0,0,0,0,0,0,0,0,1.3913,1.3916,1.3934,1.3933,1.3932,1.394,1.3944,1.3964,1.393,1.393,1.3927,1.3925,1.3941,1.3942,1.3947,1.3979,1.398,1.3948,1.3949,1.3949,1.395,0,0,0,0,0,0,0,1.3912,1.3915,1.3948,1.3934,1.3933,1.3926,1.3927,1.3948,1.3943,1.393,1.3928,1.393,1.394,1.3946,1.3947,1.398,1.3947,1.3949,1.395,1.3951,1.4041,1.4043,0,0,0,0,0,0,1.3912,1.3914,1.3948,1.3949,1.3919,1.3928,1.3929,1.3938,1.3942,1.3942,1.3931,1.3929,1.3943,1.3945,1.3948,1.399,1.3949,1.3951,1.3952,1.404,1.4042,1.4043,0,0,0,0,0,0,1.3911,1.3915,1.3947,1.3931,1.3935,1.393,1.3941,1.3939,1.3945,1.3943,1.3942,1.3938,1.3942,1.3945,1.3971,1.399,1.3952,1.3953,1.4038,1.404,1.4042,1.4075,0,0,0,0,0,0,1.391,1.3915,1.3929,1.3931,1.3936,1.3971,1.3942,1.3941,1.3948,1.3945,1.3949,1.3949,1.3942,1.3968,1.3973,1.3992,1.3955,1.4037,1.4039,1.4042,1.4073,1.4078,1.4083,0,0,0,0,0,1.3909,1.3939,1.393,1.3934,1.3953,1.3972,1.3974,1.3966,1.395,1.3964,1.3962,1.3948,1.3987,1.3971,1.3976,1.3996,1.4035,1.4038,1.4041,1.407,1.4077,1.4083,0,0,0,0,0,0,1.3939,1.3939,1.3929,1.3961,1.3967,1.3967,1.3985,1.3973,1.3984,1.3981,1.3969,1.3971,1.3998,1.3999,1.3982,1.4031,1.4009,1.4013,1.4029,1.4036,1.4041,1.404,1.3956,0,0,0,0,0,1.395,1.3965,1.3964,1.3992,1.3995,1.3989,1.3997,1.399,1.3995,1.3998,1.3998,1.4004,1.4017,1.4027,1.4039,1.4073,1.4073,1.4088,1.4094,1.4098,1.4102,1.4119,1.4126,1.4053,1.4053,1.4053,0,0,1.3971,1.3973,1.3983,1.3998,1.4001,1.4017,1.3992,1.401,1.4021,1.4001,1.4025,1.4025,1.4031,1.406,1.4073,1.4062,1.4122,1.4102,1.4106,1.4107,1.4123,1.413,1.4136,1.4055,1.4055,1.4055,0,0,1.4019,1.4022,1.4045,1.4049,1.4054,1.405,1.4056,1.4058,1.4057,1.4081,1.4066,1.4079,1.4103,1.4107,1.4113,1.4161,1.4148,1.4165,1.4193,1.421,1.4216,1.4221,1.4238,1.4244,1.4169,1.4169,1.4169,0,1.4046,1.4069,1.4059,1.4078,1.4084,1.4065,1.4089,1.4093,1.4102,1.4107,1.4094,1.4123,1.4125,1.4155,1.4167,1.4172,1.4178,1.4165,1.4216,1.4221,1.4225,1.4241,1.4248,1.4171,1.4171,1.417,1.417,0,1.4101,1.4117,1.4136,1.4144,1.4153,1.4174,1.4167,1.4176,1.4168,1.4165,1.4189,1.4192,1.4204,1.421,1.4203,1.4239,1.4232,1.4218,1.4195,1.4234,1.4249,1.4255,1.4174,1.4173,1.4172,1.4172,0,0,1.4169,1.4171,1.4178,1.4181,1.4185,1.4198,1.4218,1.4229,1.4238,1.4244,1.4261,1.428,1.4267,1.4273,1.4266,1.4281,1.4318,1.4265,1.4265,1.4274,1.4358,1.4368,1.4375,1.431,1.4311,1.4312,1.4357,0,1.4216,1.425,1.4241,1.4275,1.4289,1.4271,1.4288,1.4293,1.429,1.4302,1.43,1.4314,1.4295,1.4299,1.4313,1.4311,1.4335,1.4307,1.4325,1.4325,1.4324,1.4383,1.4394,1.4437,1.4363,1.4364,1.4364,0,1.4276,1.4284,1.432,1.432,1.4326,1.4342,1.4351,1.4362,1.4367,1.4364,1.437,1.4359,1.4379,1.4356,1.4382,1.4363,1.437,1.437,1.4371,1.4373,1.4347,1.4386,1.4451,1.4457,1.4373,1.4373,1.4372,0,1.4322,1.4342,1.4365,1.4369,1.437,1.4381,1.4383,1.4385,1.4392,1.4401,1.4405,1.4415,1.4421,1.4429,1.4421,1.4406,1.4448,1.4425,1.4446,1.4447,1.4457,1.4456,1.4523,1.4461,1.4461,1.4461,1.4461,0,1.4375,1.4397,1.4386,1.44,1.4424,1.4413,1.4437,1.4436,1.4439,1.4452,1.4437,1.4451,1.4439,1.4452,1.4446,1.4468,1.4471,1.4469,1.4467,1.447,1.447,1.4474,1.4471,1.4462,1.4462,1.4462,1.4461,0,1.4431,1.4424,1.4448,1.4447,1.4447,1.4465,1.4464,1.4477,1.4473,1.4491,1.4494,1.4488,1.4502,1.4494,1.4509,1.4504,1.4533,1.4527,1.4532,1.453,1.4552,1.455,1.4624,1.4632,1.4565,1.4566,1.4566,0,1.4465,1.4482,1.4482,1.449,1.4492,1.4505,1.4512,1.4501,1.4509,1.4514,1.4527,1.4539,1.4548,1.457,1.4567,1.4577,1.4572,1.4597,1.4573,1.4576,1.4572,1.4571,1.4572,1.4602,1.4602,1.4603,1.4604,0,1.4527,1.4523,1.4533,1.4542,1.455,1.4557,1.4563,1.457,1.4559,1.4569,1.4582,1.4589,1.4603,1.4615,1.4624,1.4625,1.4612,1.4611,1.4616,1.462,1.4621,1.462,1.4544,1.4609,1.4609,1.4608,1.4608,1.4608,1.4573,1.4586,1.4588,1.46,1.4603,1.4608,1.462,1.4617,1.4628,1.4638,1.4631,1.4647,1.465,1.466,1.4663,1.4674,1.4664,1.4672,1.4674,1.4677,1.4679,1.462,1.4676,1.4676,1.4676,1.4676,1.4676,0,1.4634,1.4634,1.4645,1.4652,1.4662,1.4649,1.4654,1.4662,1.4676,1.4679,1.4688,1.4703,1.4714,1.4712,1.4722,1.4732,1.4727,1.4735,1.4734,1.4734,1.4688,1.4682,1.4739,1.4739,1.4739,1.4739,1.4739,1.4739,1.4667,1.4688,1.4684,1.4706,1.4706,1.4721,1.4725,1.4729,1.4732,1.4749,1.4758,1.4756,1.4757,1.4767,1.4777,1.4776,1.478,1.479,1.4787,1.4744,1.4738,1.4732,1.4726,1.4792,1.4792,1.4833,1.4833,1.4833]},{"header":{"parameterUnit":"m.s-1","parameterCategory":1,"la1":30.2991,"la2":30.254,"lo1":-89.0895,"lo2":-89.0444,"dy":0.0017,"dx":0.0017,"nx":28,"ny":28,"refTime":"2025-01-17T09:00:00:Z","depth":0,"parameterNumber":3,"parameterNumberName":"V-component_of_WINDS"},"data":[0,0,0,0,0,0,0,0,0,0,0,0,0,0,0,0,0,0,0,0,0,0,0,0,0,0,0,0,0,0,0,0,0,0,0,0,0,0,0,0,0,0,0,0,0,0,0,0,0,0,0,0,0,0,0,0,0,0,0.0478,0.0479,0,0.055,0.0551,0.0551,0.0562,0.0561,0.0561,0.056,0.0635,0.0638,0.064,0,0,0,0,0,0,0,0,0,0,0,0,0,0.0352,0.0354,0.0478,0.0479,0.048,0.055,0.0551,0.0552,0.0562,0.0561,0.0561,0.056,0.0634,0.0637,0.0641,0,0,0,0,0,0,0,0,0,0,0,0,0,0.0414,0.0355,0.0478,0.0494,0.0496,0.0549,0.0551,0.0552,0.0562,0.0561,0.056,0.0559,0.0633,0.0637,0.0641,0.0685,0,0,0.0653,0.0655,0,0,0,0,0,0,0,0,0.041,0.0418,0.0491,0.0493,0.0495,0.0546,0.0534,0.0597,0.0563,0.0537,0.056,0.0559,0.0606,0.0613,0.0628,0.0688,0.0692,0.0653,0.0656,0.0657,0.0658,0,0,0,0,0,0,0,0.0406,0.0415,0.0507,0.0492,0.0494,0.0497,0.0505,0.0546,0.0577,0.0539,0.054,0.0548,0.0608,0.0624,0.063,0.0693,0.0653,0.0657,0.0659,0.0661,0.0791,0.0793,0,0,0,0,0,0,0.0399,0.0412,0.0504,0.0509,0.0449,0.05,0.0509,0.0531,0.0576,0.0582,0.0549,0.0549,0.0618,0.0625,0.0633,0.0687,0.0657,0.0661,0.0663,0.079,0.0792,0.0793,0,0,0,0,0,0,0.0396,0.0407,0.0502,0.046,0.0473,0.0504,0.0528,0.0533,0.0549,0.0584,0.0589,0.0561,0.0618,0.0627,0.0671,0.0689,0.0663,0.0666,0.0789,0.0791,0.0792,0.0795,0,0,0,0,0,0,0.0392,0.0406,0.0423,0.0461,0.0475,0.0539,0.0529,0.0535,0.0556,0.0556,0.0596,0.0601,0.0618,0.0666,0.0675,0.0694,0.0669,0.0788,0.079,0.0792,0.0794,0.0797,0.0799,0,0,0,0,0,0.0388,0.0421,0.0423,0.0435,0.0497,0.054,0.0548,0.0565,0.0557,0.0575,0.0596,0.06,0.0686,0.067,0.0681,0.0702,0.0787,0.0789,0.0792,0.0792,0.0796,0.0799,0,0,0,0,0,0,0.0385,0.0426,0.0429,0.0476,0.0504,0.0542,0.0564,0.0569,0.0601,0.06,0.062,0.0629,0.0672,0.0691,0.0673,0.0746,0.0735,0.074,0.0732,0.0736,0.0739,0.0734,0.0673,0,0,0,0,0,0.039,0.0421,0.0456,0.0494,0.0508,0.0533,0.0553,0.0563,0.0594,0.0606,0.0631,0.0661,0.0694,0.0716,0.0749,0.0796,0.0805,0.0815,0.0818,0.082,0.0825,0.0851,0.0856,0.0801,0.0801,0.0801,0,0,0.0401,0.0427,0.0446,0.0494,0.0517,0.0549,0.0543,0.0578,0.0602,0.0612,0.0655,0.0674,0.0708,0.0754,0.0776,0.0771,0.0841,0.0824,0.0825,0.0828,0.0854,0.0859,0.0863,0.0803,0.0803,0.0802,0,0,0.0436,0.0459,0.0493,0.0516,0.0551,0.0567,0.0575,0.0611,0.0624,0.0668,0.0675,0.0704,0.0762,0.0786,0.0805,0.0848,0.0853,0.0858,0.0874,0.0899,0.0903,0.0907,0.0922,0.0928,0.0862,0.0862,0.0862,0,0.0446,0.0494,0.051,0.0544,0.0565,0.0574,0.0608,0.063,0.0674,0.0688,0.0682,0.0753,0.0777,0.0829,0.0839,0.0854,0.0864,0.0854,0.0901,0.0905,0.0909,0.0924,0.093,0.0863,0.0863,0.0863,0.0863,0,0.0503,0.0537,0.056,0.0601,0.0624,0.0658,0.068,0.0702,0.071,0.0727,0.0771,0.0799,0.0837,0.085,0.0859,0.0903,0.0899,0.0897,0.0887,0.0914,0.0929,0.0935,0.0863,0.0863,0.0863,0.0863,0,0,0.0542,0.0589,0.0598,0.0616,0.0654,0.068,0.0714,0.0751,0.0769,0.0799,0.0828,0.0875,0.0873,0.0896,0.0907,0.0929,0.0961,0.0924,0.0925,0.093,0.101,0.1012,0.1018,0.0964,0.0965,0.0966,0.1008,0,0.0582,0.0643,0.0657,0.071,0.074,0.0748,0.0778,0.0804,0.0821,0.085,0.0868,0.0901,0.0896,0.091,0.0931,0.0952,0.0977,0.0949,0.0992,0.0993,0.0983,0.1026,0.1028,0.1067,0.1013,0.1014,0.1015,0,0.0638,0.0667,0.0722,0.0755,0.0768,0.0795,0.0829,0.0856,0.0886,0.0897,0.0921,0.093,0.0965,0.0953,0.1002,0.0983,0.1001,0.1014,0.1015,0.1021,0.1006,0.1033,0.1079,0.1085,0.1024,0.1023,0.1023,0,0.066,0.0714,0.0753,0.0768,0.0808,0.0826,0.0843,0.0872,0.0893,0.0923,0.0936,0.097,0.0989,0.1015,0.1033,0.1022,0.1081,0.107,0.1091,0.1091,0.1104,0.1103,0.1155,0.1115,0.1114,0.1114,0.1114,0,0.0705,0.0738,0.0764,0.0788,0.0825,0.0842,0.0878,0.0896,0.0921,0.0949,0.0958,0.0984,0.1006,0.1035,0.1049,0.1088,0.1096,0.1106,0.1109,0.1106,0.1104,0.1118,0.1116,0.1116,0.1116,0.1115,0.1115,0,0.0737,0.0755,0.0799,0.0832,0.0841,0.0867,0.0895,0.0919,0.0935,0.097,0.098,0.1005,0.104,0.1059,0.1103,0.1113,0.1156,0.1158,0.1146,0.1148,0.1168,0.1166,0.1231,0.124,0.1193,0.1193,0.1194,0,0.0764,0.079,0.0825,0.0844,0.0861,0.0892,0.0912,0.0929,0.095,0.0985,0.1005,0.104,0.1069,0.1124,0.1146,0.118,0.1183,0.1203,0.1188,0.1183,0.1184,0.1182,0.1185,0.1206,0.1207,0.1207,0.1207,0,0.0811,0.0818,0.0848,0.088,0.0904,0.093,0.0956,0.0971,0.0992,0.1016,0.1051,0.1073,0.1117,0.1151,0.1186,0.1204,0.121,0.1211,0.1218,0.1215,0.1207,0.1212,0.1154,0.121,0.121,0.121,0.121,0.121,0.0842,0.0865,0.0893,0.0925,0.0946,0.0969,0.0993,0.1012,0.1041,0.1077,0.1085,0.1122,0.1151,0.1198,0.1217,0.1246,0.1242,0.1252,0.1255,0.1257,0.1258,0.1201,0.1252,0.1252,0.1252,0.1252,0.1252,0,0.089,0.0907,0.0936,0.0972,0.0997,0.0998,0.1027,0.1048,0.108,0.1105,0.1133,0.1173,0.1206,0.123,0.1264,0.1283,0.1286,0.1291,0.1291,0.1295,0.1259,0.125,0.1288,0.1288,0.1288,0.1288,0.1288,0.1288,0.0917,0.0956,0.0966,0.1015,0.1033,0.1068,0.1084,0.1106,0.1127,0.117,0.1198,0.1213,0.1238,0.1274,0.1304,0.131,0.1323,0.1328,0.1335,0.1301,0.1297,0.1294,0.1285,0.133,0.133,0.1368,0.1368,0.1368]}]]